Regional Weather Roundup
Issued by NWS Newport/Morehead, NC

Current Version | Previous Version | Graphics & Text | Print | Product List | Glossary On
Versions: 1 2 3 4 5 6 7 8 9 10 11 12 13 14 15 16 17 18 19 20 21 22 23 24 25 26 27 28 29 30 31 32 33 34 35 36 37 38 39 40 41 42 43 44 45 46 47 48 49 50
000 ASUS42 KMHX 300625 RWRMHX WEATHER ROUNDUP FOR EASTERN NORTH CAROLINA NATIONAL WEATHER SERVICE NEWPORT/MOREHEAD CITY NC 200 AM EDT TUE JUN 30 2015 NOTE: "FAIR" INDICATES FEW OR NO CLOUDS BELOW 12,000 FEET WITH NO SIGNIFICANT WEATHER AND/OR OBSTRUCTIONS TO VISIBILITY NCZ015>017-031-032-045>047-102-103-300700- NORTH COAST CITY SKY/WX TMP DP RH WIND PRES REMARKS EDENTON CLEAR 75 71 87 S6 29.94F ELIZABETH CITY CLEAR 75 72 90 S6 29.95F KITTY HAWK CLEAR 73 69 87 CALM 29.95F MANTEO PTCLDY 73 70 92 SE5 29.95F $$ NCZ045>047-081-094-103-104-300700- CENTRAL COAST CITY SKY/WX TMP DP RH WIND PRES REMARKS FRISCO PTCLDY 77 72 84 W5 29.97F SWANQUARTER N/A 79 N/A N/A SW3G9 29.91F $$ NCZ095-097-098-100-101-300700- SOUTHERN COAST CITY SKY/WX TMP DP RH WIND PRES REMARKS BEAUFORT PTCLDY 78 72 81 SW10 29.96F CEDAR ISLAND N/A 75 N/A N/A S3 30.00S JACKSONVILLE CLEAR 73 68 84 S5 29.95F PINEY ISLAND PTCLDY N/A N/A N/A CALM 29.95F WILMINGTON CLEAR 75 71 87 S6 29.96F $$ NCZ011>013-027>030-043-044-078>080-089-090>093-098-300700- COASTAL PLAIN CITY SKY/WX TMP DP RH WIND PRES REMARKS AHOSKIE CLEAR 69 65 88 S3 29.95F CLINTON CLEAR 71 70 98 CALM 29.95F ELIZABETHTOWN CLEAR 72 69 89 CALM 29.96F GOLDSBORO CLEAR 73 70 92 SE2 29.93F GREENVILLE CLEAR 73 72 94 SW5 29.97F HAVELOCK PTCLDY 74 71 91 CALM 29.96F KENANSVILLE CLEAR 69 68 94 CALM 29.96F KINSTON CLEAR 71 69 92 SW5 29.96F NEW BERN CLEAR 73 70 90 SW5 29.96F RICHLANDS CLEAR 70 64 83 SW5 29.95F ROCKY MOUNT CLEAR 71 68 90 S3 29.94F WASHINGTON CLEAR 73 70 88 SW5 29.95F WHITEVILLE CLEAR 74 69 85 SW3 29.96F $$ AMZ130-135-150-152-154-156-158-170-250-252-270-ANZ085-086-088-633-658-670-300700- MARINE OBSERVATIONS STATION/POSITION TIME TEMP WIND PRES WAVE SWELL AIR SEA DIR/SP/G HT/PER HT/PER (UTC) (F) (DEG/KT/KT) (MB) (FT/S) (FT/S) CHESAPEAKE LIGHT 0600 75 150/ 11/ 11 1015.0 64 E VA BEACH 0550 75 75 110/ 6/ 6 1014.4 3/ 8 3/ 8 DUCK 0600 73 71 140/ 6/ 7 1013.3 2 E DUCK 0511 74 N/A 2/ 8 OREGON INLET 0600 73 71 110/ 4/ 5 1014.4 13E OREGON INLT 0600 75 N/A 4/ 8 HATTERAS CG 0600 77 81 230/ 5/ 7 1014.3 DIAMOND BUOY 0550 79 80 250/ 10/ 12 1014.7 4/ 8 3/ 8 CAPE LOOKOUT 0600 79 230/ 8/ 10 1014.2 BEAUFORT LAB 0600 79 81 230/ 3/ 7 1013.6 30 SE NEW RVR IN 0508 81 81 250/ 16/ 19 1015.4 27 SE WRIGHTSVLE 0600 81 270/ 14/ 17 N/A 5 SE WRIGHTSVLE 0508 80 79 230/ 12/ 16 1014.9 225 S CAPE HAT 0550 76 80 170/ 14/ 17 1017.9 5/ 6 3/14 41 SE CHARLESTON 0550 81 83 230/ 16/ 17 1015.2 4/ 8 3/ 8 $$

USA.gov is the U.S. government's official web portal to all federal, state and local government web resources and services.